User: anonymous   Login
Location: Mactaquac Provincial Park
(45.9573°N, 66.8897°W)
Time: 18:05:06
(UTC-04:00)
Language:

Cosmos 1867 - Orbit

View from above orbital plane
View from above orbital plane
View from above satellite
View from above satellite

Ground track
Ground track

The orbit data is extracted from the following two-line orbital elements,

1 18187U 87060A   14356.17523336 -.00000010  00000-0  33981-4 0  2549
2 18187 065.0107 249.8932 0013551 272.3643 087.5890 14.31041210434066
Epoch (UTC): 22 December 2014 04:12:20
Eccentricity: 0.0013551
inclination: 65.0107°
perigee height: 778 km
apogee height: 798 km
right ascension of ascending node: 249.8932°
argument of perigee: 272.3643°
revolutions per day: 14.31041210
mean anomaly at epoch: 87.5890°
orbit number at epoch: 43406

The dashed part of the orbit path shows where the satellite is in the earth's shadow,  

DLR